Time,TemperatureF,DewpointF,PressureIn,WindDirection,WindDirectionDegrees,WindSpeedMPH,WindSpeedGustMPH,Humidity,HourlyPrecipIn,Conditions,Clouds,dailyrainin,SolarRadiationWatts/m^2,SoftwareType,DateUTC
2013-05-29 00:01:00,70.4,67.3,29.71,North,32767,0.0,0.0,90,0.00,,,0.00,0,Wunderground v.1.15,2013-05-29 04:01:00,
2013-05-29 00:02:00,70.3,67.2,29.71,North,32767,0.0,0.0,90,0.00,,,0.00,0,Wunderground v.1.15,2013-05-29 04:02:00,
2013-05-29 00:03:00,70.2,67.1,29.71,North,32767,0.0,0.0,90,0.00,,,0.00,0,Wunderground v.1.15,2013-05-29 04:03:00,
2013-05-29 00:05:00,70.1,67.0,29.71,North,32767,0.0,0.0,90,0.00,,,0.00,0,Wunderground v.1.15,2013-05-29 04:05:00,
2013-05-29 00:10:00,69.9,67.2,29.71,North,32767,0.0,0.0,91,0.00,,,0.00,0,Wunderground v.1.15,2013-05-29 04:10:00,
2013-05-29 00:12:00,69.9,67.2,29.71,North,32767,0.0,0.0,91,0.00,,,0.00,0,Wunderground v.1.15,2013-05-29 04:12:00,
2013-05-29 00:18:00,69.9,66.8,29.70,North,32767,0.0,0.0,90,0.00,,,0.00,0,Wunderground v.1.15,2013-05-29 04:18:00,
2013-05-29 00:23:00,69.9,67.2,29.71,North,32767,0.0,0.0,91,0.00,,,0.00,0,Wunderground v.1.15,2013-05-29 04:23:00,
2013-05-29 00:29:00,69.8,67.1,29.71,North,32767,0.0,0.0,91,0.00,,,0.00,0,Wunderground v.1.15,2013-05-29 04:29:00,
2013-05-29 00:35:00,69.7,67.0,29.70,North,32767,0.0,0.0,91,0.00,,,0.00,0,Wunderground v.1.15,2013-05-29 04:35:00,
2013-05-29 00:41:00,69.7,67.0,29.71,North,32767,0.0,0.0,91,0.00,,,0.00,0,Wunderground v.1.15,2013-05-29 04:41:00,
2013-05-29 00:47:00,69.6,66.9,29.70,North,32767,0.0,0.0,91,0.00,,,0.00,0,Wunderground v.1.15,2013-05-29 04:47:00,
2013-05-29 00:53:00,69.3,66.6,29.70,North,32767,0.0,0.0,91,0.00,,,0.00,0,Wunderground v.1.15,2013-05-29 04:53:00,
2013-05-29 00:59:00,69.3,66.6,29.70,North,32767,0.0,0.0,91,0.00,,,0.00,0,Wunderground v.1.15,2013-05-29 04:59:00,
2013-05-29 01:04:00,69.3,66.6,29.70,North,32767,0.0,0.0,91,0.00,,,0.00,0,Wunderground v.1.15,2013-05-29 05:04:00,
2013-05-29 01:10:00,69.4,66.7,29.71,North,32767,0.0,0.0,91,0.00,,,0.00,0,Wunderground v.1.15,2013-05-29 05:10:00,
2013-05-29 01:16:00,69.5,66.8,29.70,North,32767,0.0,0.0,91,0.00,,,0.00,0,Wunderground v.1.15,2013-05-29 05:16:00,
2013-05-29 01:22:00,69.2,66.8,29.71,North,32767,0.0,0.0,92,0.00,,,0.00,0,Wunderground v.1.15,2013-05-29 05:22:00,
2013-05-29 01:28:00,69.0,66.9,29.70,North,32767,0.0,0.0,93,0.00,,,0.00,0,Wunderground v.1.15,2013-05-29 05:28:00,
2013-05-29 01:33:00,68.8,66.7,29.70,North,32767,0.0,0.0,93,0.00,,,0.00,0,Wunderground v.1.15,2013-05-29 05:33:00,
2013-05-29 01:39:00,68.6,66.8,29.70,North,32767,0.0,0.0,94,0.00,,,0.00,0,Wunderground v.1.15,2013-05-29 05:39:00,
2013-05-29 01:45:00,68.4,66.6,29.70,North,32767,0.0,0.0,94,0.00,,,0.00,0,Wunderground v.1.15,2013-05-29 05:45:00,
2013-05-29 01:51:00,68.3,66.5,29.70,North,32767,0.0,0.0,94,0.00,,,0.00,0,Wunderground v.1.15,2013-05-29 05:51:00,
2013-05-29 01:56:00,68.2,66.4,29.69,North,32767,0.0,0.0,94,0.00,,,0.00,0,Wunderground v.1.15,2013-05-29 05:56:00,
2013-05-29 02:01:00,68.0,66.2,29.69,North,32767,0.0,0.0,94,0.00,,,0.00,0,Wunderground v.1.15,2013-05-29 06:01:00,
2013-05-29 02:07:00,67.9,66.1,29.68,North,32767,0.0,0.0,94,0.00,,,0.00,0,Wunderground v.1.15,2013-05-29 06:07:00,
2013-05-29 02:12:00,67.8,66.3,29.67,North,32767,0.0,0.0,95,0.00,,,0.00,0,Wunderground v.1.15,2013-05-29 06:12:00,
2013-05-29 02:18:00,67.8,66.0,29.67,North,32767,0.0,0.0,94,0.00,,,0.00,0,Wunderground v.1.15,2013-05-29 06:18:00,
2013-05-29 02:24:00,67.7,65.9,29.66,North,32767,0.0,0.0,94,0.00,,,0.00,0,Wunderground v.1.15,2013-05-29 06:24:00,
2013-05-29 02:30:00,67.7,65.9,29.65,North,32767,0.0,0.0,94,0.00,,,0.00,0,Wunderground v.1.15,2013-05-29 06:30:00,
2013-05-29 02:35:00,67.8,65.7,29.66,North,32767,0.0,0.0,93,0.00,,,0.00,0,Wunderground v.1.15,2013-05-29 06:35:00,
2013-05-29 02:41:00,67.8,65.7,29.68,North,32767,0.0,0.0,93,0.00,,,0.00,0,Wunderground v.1.15,2013-05-29 06:41:00,
2013-05-29 02:47:00,67.9,65.5,29.68,North,32767,0.0,0.0,92,0.00,,,0.00,0,Wunderground v.1.15,2013-05-29 06:47:00,
2013-05-29 02:53:00,67.9,64.9,29.69,North,32767,0.0,0.0,90,0.00,,,0.00,0,Wunderground v.1.15,2013-05-29 06:53:00,
2013-05-29 02:59:00,67.6,64.6,29.69,North,32767,0.0,0.0,90,0.00,,,0.00,0,Wunderground v.1.15,2013-05-29 06:59:00,
2013-05-29 03:04:00,67.3,63.9,29.69,North,32767,0.0,0.0,89,0.00,,,0.00,0,Wunderground v.1.15,2013-05-29 07:04:00,
2013-05-29 03:10:00,67.2,63.5,29.69,North,32767,0.0,0.0,88,0.00,,,0.00,0,Wunderground v.1.15,2013-05-29 07:10:00,
2013-05-29 03:16:00,67.2,63.5,29.67,North,32767,0.0,0.0,88,0.00,,,0.00,0,Wunderground v.1.15,2013-05-29 07:16:00,
2013-05-29 03:22:00,67.0,63.3,29.68,North,32767,0.0,0.0,88,0.00,,,0.00,0,Wunderground v.1.15,2013-05-29 07:22:00,
2013-05-29 03:28:00,66.7,63.4,29.69,North,32767,0.0,0.0,89,0.00,,,0.00,0,Wunderground v.1.15,2013-05-29 07:28:00,
2013-05-29 03:34:00,66.4,63.1,29.70,North,32767,0.0,0.0,89,0.00,,,0.00,0,Wunderground v.1.15,2013-05-29 07:34:00,
2013-05-29 03:40:00,66.1,63.1,29.70,North,32767,0.0,0.0,90,0.00,,,0.00,0,Wunderground v.1.15,2013-05-29 07:40:00,
2013-05-29 03:46:00,65.8,62.8,29.70,North,32767,0.0,0.0,90,0.00,,,0.00,0,Wunderground v.1.15,2013-05-29 07:46:00,
2013-05-29 03:51:00,65.5,62.8,29.71,North,32767,0.0,0.0,91,0.00,,,0.00,0,Wunderground v.1.15,2013-05-29 07:51:00,
2013-05-29 03:57:00,65.2,62.5,29.71,North,32767,0.0,0.0,91,0.00,,,0.00,0,Wunderground v.1.15,2013-05-29 07:57:00,
2013-05-29 04:03:00,64.9,62.2,29.71,North,32767,0.0,0.0,91,0.00,,,0.00,0,Wunderground v.1.15,2013-05-29 08:03:00,
2013-05-29 04:09:00,64.6,62.2,29.71,North,32767,0.0,0.0,92,0.00,,,0.00,0,Wunderground v.1.15,2013-05-29 08:09:00,
2013-05-29 04:14:00,64.5,62.1,29.71,North,32767,0.0,0.0,92,0.00,,,0.00,0,Wunderground v.1.15,2013-05-29 08:14:00,
2013-05-29 04:20:00,64.2,61.8,29.72,North,32767,0.0,0.0,92,0.00,,,0.00,0,Wunderground v.1.15,2013-05-29 08:20:00,
2013-05-29 04:26:00,64.0,61.9,29.73,North,32767,0.0,0.0,93,0.00,,,0.00,0,Wunderground v.1.15,2013-05-29 08:26:00,
2013-05-29 04:31:00,63.9,61.8,29.73,North,32767,0.0,0.0,93,0.00,,,0.00,0,Wunderground v.1.15,2013-05-29 08:31:00,
2013-05-29 04:37:00,63.7,61.6,29.74,North,32767,0.0,0.0,93,0.00,,,0.00,0,Wunderground v.1.15,2013-05-29 08:37:00,
2013-05-29 04:43:00,63.6,61.8,29.74,North,32767,0.0,0.0,94,0.00,,,0.00,0,Wunderground v.1.15,2013-05-29 08:43:00,
2013-05-29 04:49:00,63.6,61.8,29.74,North,32767,0.0,0.0,94,0.00,,,0.00,0,Wunderground v.1.15,2013-05-29 08:49:00,
2013-05-29 04:55:00,63.5,61.7,29.74,North,32767,0.0,0.0,94,0.00,,,0.00,0,Wunderground v.1.15,2013-05-29 08:55:00,
2013-05-29 05:01:00,63.4,61.6,29.74,North,32767,0.0,0.0,94,0.00,,,0.00,0,Wunderground v.1.15,2013-05-29 09:01:00,
2013-05-29 05:07:00,63.3,61.5,29.75,North,32767,0.0,0.0,94,0.00,,,0.00,0,Wunderground v.1.15,2013-05-29 09:07:00,
2013-05-29 05:12:00,63.2,61.4,29.74,North,32767,0.0,0.0,94,0.00,,,0.00,0,Wunderground v.1.15,2013-05-29 09:12:00,
2013-05-29 05:18:00,63.1,61.3,29.74,North,32767,0.0,0.0,94,0.00,,,0.00,0,Wunderground v.1.15,2013-05-29 09:18:00,
2013-05-29 05:24:00,62.9,61.1,29.74,North,32767,0.0,0.0,94,0.00,,,0.00,0,Wunderground v.1.15,2013-05-29 09:24:00,
2013-05-29 05:30:00,62.8,61.3,29.74,North,32767,0.0,0.0,95,0.00,,,0.00,0,Wunderground v.1.15,2013-05-29 09:30:00,
2013-05-29 05:35:00,62.7,61.2,29.75,North,32767,0.0,0.0,95,0.00,,,0.00,0,Wunderground v.1.15,2013-05-29 09:35:00,
2013-05-29 05:41:00,62.6,61.1,29.75,North,32767,0.0,0.0,95,0.00,,,0.00,0,Wunderground v.1.15,2013-05-29 09:41:00,
2013-05-29 05:47:00,62.5,61.0,29.75,North,32767,0.0,0.0,95,0.00,,,0.00,0,Wunderground v.1.15,2013-05-29 09:47:00,
2013-05-29 05:53:00,62.5,61.3,29.75,North,32767,0.0,0.0,96,0.00,,,0.00,0,Wunderground v.1.15,2013-05-29 09:53:00,
2013-05-29 05:59:00,62.6,61.7,29.75,North,32767,0.0,0.0,97,0.00,,,0.00,0,Wunderground v.1.15,2013-05-29 09:59:00,
2013-05-29 06:04:00,62.7,61.8,29.75,North,32767,0.0,0.0,97,0.00,,,0.00,0,Wunderground v.1.15,2013-05-29 10:04:00,
2013-05-29 06:10:00,62.9,62.0,29.75,North,32767,0.0,0.0,97,0.00,,,0.00,0,Wunderground v.1.15,2013-05-29 10:10:00,
2013-05-29 06:16:00,63.0,62.1,29.75,North,32767,0.0,0.0,97,0.00,,,0.00,7,Wunderground v.1.15,2013-05-29 10:16:00,
2013-05-29 06:22:00,63.1,62.2,29.75,North,32767,0.0,0.0,97,0.00,,,0.00,12,Wunderground v.1.15,2013-05-29 10:22:00,
2013-05-29 06:28:00,63.1,62.2,29.75,North,32767,0.0,0.0,97,0.00,,,0.00,16,Wunderground v.1.15,2013-05-29 10:28:00,
2013-05-29 06:33:00,63.3,62.7,29.75,North,32767,0.0,0.0,98,0.00,,,0.00,21,Wunderground v.1.15,2013-05-29 10:33:00,
2013-05-29 06:39:00,63.4,62.5,29.75,North,32767,0.0,0.0,97,0.00,,,0.00,23,Wunderground v.1.15,2013-05-29 10:39:00,
2013-05-29 06:45:00,63.6,63.0,29.75,North,32767,0.0,0.0,98,0.00,,,0.00,32,Wunderground v.1.15,2013-05-29 10:45:00,
2013-05-29 06:51:00,63.8,63.2,29.76,North,32767,0.0,0.0,98,0.00,,,0.00,33,Wunderground v.1.15,2013-05-29 10:51:00,
2013-05-29 06:57:00,64.0,63.4,29.76,North,32767,0.0,0.0,98,0.00,,,0.00,33,Wunderground v.1.15,2013-05-29 10:57:00,
2013-05-29 07:02:00,64.2,63.6,29.76,North,32767,0.0,0.0,98,0.00,,,0.00,26,Wunderground v.1.15,2013-05-29 11:02:00,
2013-05-29 07:08:00,64.4,63.8,29.76,North,32767,0.0,0.0,98,0.00,,,0.00,21,Wunderground v.1.15,2013-05-29 11:08:00,
2013-05-29 07:14:00,64.5,63.6,29.76,North,32767,0.0,0.0,97,0.00,,,0.00,19,Wunderground v.1.15,2013-05-29 11:14:00,
2013-05-29 07:22:00,64.6,64.0,29.76,North,32767,0.0,0.0,98,0.00,,,0.00,25,Wunderground v.1.15,2013-05-29 11:22:00,
2013-05-29 07:28:00,64.7,63.8,29.76,North,32767,0.0,0.0,97,0.00,,,0.00,25,Wunderground v.1.15,2013-05-29 11:28:00,
2013-05-29 07:33:00,64.8,63.9,29.76,North,32767,0.0,0.0,97,0.00,,,0.00,30,Wunderground v.1.15,2013-05-29 11:33:00,
2013-05-29 07:39:00,64.9,64.0,29.76,North,32767,0.0,0.0,97,0.00,,,0.00,37,Wunderground v.1.15,2013-05-29 11:39:00,
2013-05-29 07:45:00,65.0,64.1,29.76,North,32767,0.0,0.0,97,0.00,,,0.00,51,Wunderground v.1.15,2013-05-29 11:45:00,
2013-05-29 07:51:00,65.1,64.2,29.76,North,32767,0.0,0.0,97,0.00,,,0.00,74,Wunderground v.1.15,2013-05-29 11:51:00,
2013-05-29 07:57:00,65.2,64.6,29.76,North,32767,0.0,0.0,98,0.00,,,0.00,60,Wunderground v.1.15,2013-05-29 11:57:00,
2013-05-29 08:02:00,65.4,64.8,29.76,North,32767,0.0,0.0,98,0.00,,,0.00,53,Wunderground v.1.15,2013-05-29 12:02:00,
2013-05-29 08:08:00,65.6,64.7,29.76,North,32767,0.0,0.0,97,0.00,,,0.00,54,Wunderground v.1.15,2013-05-29 12:08:00,
2013-05-29 08:14:00,65.8,64.9,29.76,North,32767,0.0,0.0,97,0.00,,,0.00,53,Wunderground v.1.15,2013-05-29 12:14:00,
2013-05-29 08:20:00,65.9,65.0,29.77,North,32767,0.0,0.0,97,0.00,,,0.01,58,Wunderground v.1.15,2013-05-29 12:20:00,
2013-05-29 08:25:00,66.0,65.1,29.77,North,32767,0.0,0.0,97,0.00,,,0.01,67,Wunderground v.1.15,2013-05-29 12:25:00,
2013-05-29 08:31:00,66.1,65.2,29.78,North,32767,0.0,0.0,97,0.00,,,0.01,88,Wunderground v.1.15,2013-05-29 12:31:00,
2013-05-29 08:37:00,66.3,65.4,29.77,North,32767,0.0,0.0,97,0.00,,,0.01,113,Wunderground v.1.15,2013-05-29 12:37:00,
2013-05-29 08:43:00,66.4,65.5,29.78,North,32767,0.0,0.0,97,0.00,,,0.01,118,Wunderground v.1.15,2013-05-29 12:43:00,
2013-05-29 08:48:00,66.6,65.7,29.78,North,32767,0.0,0.0,97,0.00,,,0.01,146,Wunderground v.1.15,2013-05-29 12:48:00,
2013-05-29 08:54:00,67.0,66.4,29.78,North,32767,0.0,0.0,98,0.00,,,0.01,262,Wunderground v.1.15,2013-05-29 12:54:00,
2013-05-29 08:59:00,67.4,66.2,29.78,North,32767,0.0,0.0,96,0.00,,,0.01,123,Wunderground v.1.15,2013-05-29 12:59:00,
2013-05-29 09:04:00,67.7,66.5,29.78,North,32767,0.0,0.0,96,0.00,,,0.01,207,Wunderground v.1.15,2013-05-29 13:04:00,
2013-05-29 09:10:00,68.1,66.3,29.78,North,32767,0.0,0.0,94,0.00,,,0.01,315,Wunderground v.1.15,2013-05-29 13:10:00,
2013-05-29 09:16:00,68.6,66.2,29.78,North,32767,0.0,0.0,92,0.00,,,0.01,308,Wunderground v.1.15,2013-05-29 13:16:00,
2013-05-29 09:22:00,69.2,67.1,29.78,North,32767,0.0,0.0,93,0.00,,,0.01,330,Wunderground v.1.15,2013-05-29 13:22:00,
2013-05-29 09:28:00,69.7,67.3,29.78,North,32767,0.0,0.0,92,0.00,,,0.01,313,Wunderground v.1.15,2013-05-29 13:28:00,
2013-05-29 09:33:00,69.9,66.8,29.78,North,32767,0.0,0.0,90,0.00,,,0.01,262,Wunderground v.1.15,2013-05-29 13:33:00,
2013-05-29 09:39:00,70.3,67.2,29.78,North,32767,0.0,0.0,90,0.00,,,0.01,294,Wunderground v.1.15,2013-05-29 13:39:00,
2013-05-29 09:45:00,70.6,67.2,29.78,North,32767,0.0,0.0,89,0.00,,,0.01,424,Wunderground v.1.15,2013-05-29 13:45:00,
2013-05-29 09:51:00,71.1,67.7,29.79,North,32767,0.0,0.0,89,0.00,,,0.01,485,Wunderground v.1.15,2013-05-29 13:51:00,
2013-05-29 09:57:00,71.7,68.0,29.78,North,32767,0.0,0.0,88,0.00,,,0.01,489,Wunderground v.1.15,2013-05-29 13:57:00,
2013-05-29 10:02:00,72.0,67.6,29.78,North,32767,0.0,0.0,86,0.00,,,0.01,519,Wunderground v.1.15,2013-05-29 14:02:00,
2013-05-29 10:08:00,72.5,67.7,29.78,North,32767,0.0,0.0,85,0.00,,,0.01,575,Wunderground v.1.15,2013-05-29 14:08:00,
2013-05-29 10:14:00,73.1,68.3,29.78,North,32767,0.0,0.0,85,0.00,,,0.01,682,Wunderground v.1.15,2013-05-29 14:14:00,
2013-05-29 10:20:00,73.8,68.3,29.78,North,32767,0.0,0.0,83,0.00,,,0.01,575,Wunderground v.1.15,2013-05-29 14:20:00,
2013-05-29 10:26:00,74.3,67.7,29.77,North,32767,0.0,0.0,80,0.00,,,0.01,626,Wunderground v.1.15,2013-05-29 14:26:00,
2013-05-29 10:32:00,74.5,67.2,29.77,North,32767,0.0,0.0,78,0.00,,,0.01,487,Wunderground v.1.15,2013-05-29 14:32:00,
2013-05-29 10:38:00,74.6,66.9,29.77,North,32767,0.0,0.0,77,0.00,,,0.01,415,Wunderground v.1.15,2013-05-29 14:38:00,
2013-05-29 10:44:00,74.5,67.9,29.77,North,32767,0.0,0.0,80,0.00,,,0.01,374,Wunderground v.1.15,2013-05-29 14:44:00,
2013-05-29 10:50:00,74.3,66.6,29.78,North,32767,0.0,0.0,77,0.00,,,0.01,392,Wunderground v.1.15,2013-05-29 14:50:00,
2013-05-29 10:55:00,74.1,66.0,29.78,North,32767,0.0,0.0,76,0.00,,,0.01,297,Wunderground v.1.15,2013-05-29 14:55:00,
2013-05-29 11:01:00,74.0,66.3,29.77,North,32767,0.0,0.0,77,0.00,,,0.01,531,Wunderground v.1.15,2013-05-29 15:01:00,
2013-05-29 11:07:00,74.1,66.8,29.78,North,32767,0.0,0.0,78,0.00,,,0.01,645,Wunderground v.1.15,2013-05-29 15:07:00,
2013-05-29 11:13:00,74.4,66.7,29.78,North,32767,0.0,0.0,77,0.00,,,0.01,664,Wunderground v.1.15,2013-05-29 15:13:00,
2013-05-29 11:19:00,75.0,68.0,29.78,North,32767,0.0,0.0,79,0.00,,,0.01,464,Wunderground v.1.15,2013-05-29 15:19:00,
2013-05-29 11:24:00,75.2,67.1,29.78,North,32767,0.0,0.0,76,0.00,,,0.01,425,Wunderground v.1.15,2013-05-29 15:24:00,
2013-05-29 11:30:00,75.1,66.6,29.79,North,32767,0.0,0.0,75,0.00,,,0.01,357,Wunderground v.1.15,2013-05-29 15:30:00,
2013-05-29 11:35:00,75.0,66.5,29.79,North,32767,0.0,0.0,75,0.00,,,0.01,327,Wunderground v.1.15,2013-05-29 15:35:00,
2013-05-29 11:41:00,74.7,66.2,29.80,North,32767,0.0,0.0,75,0.00,,,0.01,283,Wunderground v.1.15,2013-05-29 15:41:00,
2013-05-29 11:47:00,74.6,67.3,29.80,North,32767,0.0,0.0,78,0.00,,,0.01,315,Wunderground v.1.15,2013-05-29 15:47:00,
2013-05-29 11:53:00,74.6,66.1,29.81,North,32767,0.0,0.0,75,0.00,,,0.01,466,Wunderground v.1.15,2013-05-29 15:53:00,
2013-05-29 11:59:00,74.9,65.7,29.81,North,32767,0.0,0.0,73,0.00,,,0.01,867,Wunderground v.1.15,2013-05-29 15:59:00,
2013-05-29 12:04:00,75.6,68.3,29.81,North,32767,0.0,0.0,78,0.00,,,0.01,868,Wunderground v.1.15,2013-05-29 16:04:00,
2013-05-29 12:10:00,76.2,67.7,29.82,North,32767,0.0,0.0,75,0.00,,,0.01,821,Wunderground v.1.15,2013-05-29 16:10:00,
2013-05-29 12:16:00,76.7,67.0,29.82,North,32767,0.0,0.0,72,0.00,,,0.01,995,Wunderground v.1.15,2013-05-29 16:16:00,
2013-05-29 12:22:00,77.2,67.9,29.82,North,32767,0.0,0.0,73,0.00,,,0.01,921,Wunderground v.1.15,2013-05-29 16:22:00,
2013-05-29 12:28:00,77.6,66.6,29.82,North,32767,0.0,0.0,69,0.00,,,0.01,921,Wunderground v.1.15,2013-05-29 16:28:00,
2013-05-29 12:33:00,77.8,66.4,29.82,North,32767,0.0,0.0,68,0.00,,,0.01,947,Wunderground v.1.15,2013-05-29 16:33:00,
2013-05-29 12:39:00,77.8,66.8,29.83,North,32767,0.0,0.0,69,0.00,,,0.01,954,Wunderground v.1.15,2013-05-29 16:39:00,
2013-05-29 12:45:00,77.9,66.1,29.83,North,32767,0.0,0.0,67,0.00,,,0.01,904,Wunderground v.1.15,2013-05-29 16:45:00,
2013-05-29 12:51:00,78.0,67.0,29.83,North,32767,0.0,0.0,69,0.00,,,0.01,944,Wunderground v.1.15,2013-05-29 16:51:00,
2013-05-29 12:57:00,78.3,67.7,29.83,North,32767,0.0,0.0,70,0.00,,,0.01,935,Wunderground v.1.15,2013-05-29 16:57:00,
2013-05-29 13:02:00,78.4,66.5,29.83,North,32767,0.0,0.0,67,0.00,,,0.01,953,Wunderground v.1.15,2013-05-29 17:02:00,
2013-05-29 13:08:00,78.7,67.2,29.83,North,32767,0.0,0.0,68,0.00,,,0.01,925,Wunderground v.1.15,2013-05-29 17:08:00,
2013-05-29 13:14:00,78.8,66.9,29.83,North,32767,0.0,0.0,67,0.00,,,0.01,953,Wunderground v.1.15,2013-05-29 17:14:00,
2013-05-29 13:20:00,79.0,67.1,29.83,North,32767,0.0,0.0,67,0.00,,,0.01,949,Wunderground v.1.15,2013-05-29 17:20:00,
2013-05-29 13:26:00,79.1,66.3,29.83,North,32767,0.0,0.0,65,0.00,,,0.01,953,Wunderground v.1.15,2013-05-29 17:26:00,
2013-05-29 13:31:00,79.4,67.0,29.83,North,32767,0.0,0.0,66,0.00,,,0.01,976,Wunderground v.1.15,2013-05-29 17:31:00,
2013-05-29 13:37:00,79.4,67.0,29.84,North,32767,0.0,0.0,66,0.00,,,0.01,967,Wunderground v.1.15,2013-05-29 17:37:00,
2013-05-29 13:43:00,79.5,66.3,29.84,North,32767,0.0,0.0,64,0.00,,,0.01,882,Wunderground v.1.15,2013-05-29 17:43:00,
2013-05-29 13:49:00,79.6,66.3,29.84,North,32767,0.0,0.0,64,0.00,,,0.01,621,Wunderground v.1.15,2013-05-29 17:49:00,
2013-05-29 13:55:00,79.8,66.5,29.84,North,32767,0.0,0.0,64,0.00,,,0.01,622,Wunderground v.1.15,2013-05-29 17:55:00,
2013-05-29 14:01:00,79.8,67.0,29.84,North,32767,0.0,0.0,65,0.00,,,0.01,564,Wunderground v.1.15,2013-05-29 18:01:00,
2013-05-29 14:06:00,79.5,66.3,29.84,North,32767,0.0,0.0,64,0.00,,,0.01,359,Wunderground v.1.15,2013-05-29 18:06:00,
2013-05-29 14:12:00,79.5,67.1,29.84,North,32767,0.0,0.0,66,0.00,,,0.01,547,Wunderground v.1.15,2013-05-29 18:12:00,
2013-05-29 14:18:00,79.9,65.2,29.84,North,32767,0.0,0.0,61,0.00,,,0.01,983,Wunderground v.1.15,2013-05-29 18:18:00,
2013-05-29 14:23:00,80.5,65.8,29.84,North,32767,0.0,0.0,61,0.00,,,0.01,1046,Wunderground v.1.15,2013-05-29 18:23:00,
2013-05-29 14:29:00,80.7,66.0,29.84,North,32767,0.0,0.0,61,0.00,,,0.01,239,Wunderground v.1.15,2013-05-29 18:29:00,
2013-05-29 14:35:00,80.5,65.3,29.84,North,32767,0.0,0.0,60,0.00,,,0.01,923,Wunderground v.1.15,2013-05-29 18:35:00,
2013-05-29 14:41:00,80.8,66.1,29.84,North,32767,0.0,0.0,61,0.00,,,0.01,877,Wunderground v.1.15,2013-05-29 18:41:00,
2013-05-29 14:47:00,81.1,66.4,29.83,North,32767,0.0,0.0,61,0.00,,,0.01,937,Wunderground v.1.15,2013-05-29 18:47:00,
2013-05-29 14:53:00,81.4,68.9,29.83,North,32767,0.0,0.0,66,0.00,,,0.01,974,Wunderground v.1.15,2013-05-29 18:53:00,
2013-05-29 14:59:00,81.4,65.7,29.83,North,32767,0.0,0.0,59,0.00,,,0.01,213,Wunderground v.1.15,2013-05-29 18:59:00,
2013-05-29 15:04:00,81.2,66.9,29.83,North,32767,0.0,0.0,62,0.00,,,0.01,682,Wunderground v.1.15,2013-05-29 19:04:00,
2013-05-29 15:09:00,81.2,66.9,29.83,North,32767,0.0,0.0,62,0.00,,,0.01,682,Wunderground v.1.15,2013-05-29 19:09:00,
2013-05-29 15:15:00,81.4,65.2,29.83,North,32767,0.0,0.0,58,0.00,,,0.01,828,Wunderground v.1.15,2013-05-29 19:15:00,
2013-05-29 15:21:00,81.4,67.1,29.83,North,32767,0.0,0.0,62,0.00,,,0.01,278,Wunderground v.1.15,2013-05-29 19:21:00,
2013-05-29 15:27:00,81.2,65.0,29.83,North,32767,0.0,0.0,58,0.00,,,0.01,297,Wunderground v.1.15,2013-05-29 19:27:00,
2013-05-29 15:32:00,80.9,64.7,29.83,North,32767,0.0,0.0,58,0.00,,,0.01,290,Wunderground v.1.15,2013-05-29 19:32:00,
2013-05-29 15:38:00,80.5,64.9,29.83,North,32767,0.0,0.0,59,0.00,,,0.01,362,Wunderground v.1.15,2013-05-29 19:38:00,
2013-05-29 15:44:00,80.3,67.5,29.83,North,32767,0.0,0.0,65,0.00,,,0.01,309,Wunderground v.1.15,2013-05-29 19:44:00,
2013-05-29 15:50:00,79.9,66.2,29.83,North,32767,0.0,0.0,63,0.00,,,0.01,236,Wunderground v.1.15,2013-05-29 19:50:00,
2013-05-29 15:56:00,79.4,65.7,29.83,North,32767,0.0,0.0,63,0.00,,,0.01,325,Wunderground v.1.15,2013-05-29 19:56:00,
2013-05-29 16:01:00,79.2,65.1,29.83,North,32767,0.0,0.0,62,0.00,,,0.01,178,Wunderground v.1.15,2013-05-29 20:01:00,
2013-05-29 16:07:00,79.1,66.3,29.83,North,32767,0.0,0.0,65,0.00,,,0.01,262,Wunderground v.1.15,2013-05-29 20:07:00,
2013-05-29 16:13:00,79.0,65.8,29.83,North,32767,0.0,0.0,64,0.00,,,0.01,188,Wunderground v.1.15,2013-05-29 20:13:00,
2013-05-29 16:19:00,78.9,65.2,29.83,North,32767,0.0,0.0,63,0.00,,,0.01,127,Wunderground v.1.15,2013-05-29 20:19:00,
2013-05-29 16:25:00,78.7,65.5,29.83,North,32767,0.0,0.0,64,0.00,,,0.01,221,Wunderground v.1.15,2013-05-29 20:25:00,
2013-05-29 16:31:00,78.7,66.8,29.83,North,32767,0.0,0.0,67,0.00,,,0.01,130,Wunderground v.1.15,2013-05-29 20:31:00,
2013-05-29 16:36:00,78.5,66.2,29.83,North,32767,0.0,0.0,66,0.00,,,0.01,141,Wunderground v.1.15,2013-05-29 20:36:00,
2013-05-29 16:42:00,78.3,66.4,29.83,North,32767,0.0,0.0,67,0.00,,,0.01,95,Wunderground v.1.15,2013-05-29 20:42:00,
2013-05-29 16:48:00,78.1,66.7,29.83,North,32767,0.0,0.0,68,0.00,,,0.01,76,Wunderground v.1.15,2013-05-29 20:48:00,
2013-05-29 16:54:00,77.9,67.3,29.83,North,32767,0.0,0.0,70,0.00,,,0.01,98,Wunderground v.1.15,2013-05-29 20:54:00,
2013-05-29 17:00:00,77.6,67.9,29.83,North,32767,0.0,0.0,72,0.00,,,0.01,148,Wunderground v.1.15,2013-05-29 21:00:00,
2013-05-29 17:05:00,77.6,67.9,29.84,North,32767,0.0,0.0,72,0.00,,,0.01,239,Wunderground v.1.15,2013-05-29 21:05:00,
2013-05-29 17:11:00,77.8,67.2,29.83,North,32767,0.0,0.0,70,0.00,,,0.01,380,Wunderground v.1.15,2013-05-29 21:11:00,
2013-05-29 17:17:00,78.2,66.8,29.83,North,32767,0.0,0.0,68,0.00,,,0.01,338,Wunderground v.1.15,2013-05-29 21:17:00,
2013-05-29 17:23:00,78.5,67.1,29.83,North,32767,0.0,0.0,68,0.00,,,0.01,234,Wunderground v.1.15,2013-05-29 21:23:00,
2013-05-29 17:29:00,78.7,68.5,29.84,North,32767,0.0,0.0,71,0.00,,,0.01,151,Wunderground v.1.15,2013-05-29 21:29:00,
2013-05-29 17:34:00,78.6,67.6,29.84,North,32767,0.0,0.0,69,0.00,,,0.01,149,Wunderground v.1.15,2013-05-29 21:34:00,
2013-05-29 17:40:00,78.4,67.8,29.84,North,32767,0.0,0.0,70,0.00,,,0.01,190,Wunderground v.1.15,2013-05-29 21:40:00,
2013-05-29 17:46:00,78.2,67.2,29.84,North,32767,0.0,0.0,69,0.00,,,0.01,141,Wunderground v.1.15,2013-05-29 21:46:00,
2013-05-29 17:52:00,78.1,67.5,29.83,North,32767,0.0,0.0,70,0.00,,,0.01,155,Wunderground v.1.15,2013-05-29 21:52:00,
2013-05-29 17:58:00,78.1,67.5,29.83,North,32767,0.0,0.0,70,0.00,,,0.01,162,Wunderground v.1.15,2013-05-29 21:58:00,
2013-05-29 18:03:00,77.9,68.5,29.83,North,32767,0.0,0.0,73,0.00,,,0.01,123,Wunderground v.1.15,2013-05-29 22:03:00,
2013-05-29 18:09:00,77.6,67.0,29.83,North,32767,0.0,0.0,70,0.00,,,0.01,125,Wunderground v.1.15,2013-05-29 22:09:00,
2013-05-29 18:15:00,77.2,66.7,29.83,North,32767,0.0,0.0,70,0.00,,,0.01,104,Wunderground v.1.15,2013-05-29 22:15:00,
2013-05-29 18:21:00,77.0,67.3,29.83,North,32767,0.0,0.0,72,0.00,,,0.01,118,Wunderground v.1.15,2013-05-29 22:21:00,
2013-05-29 18:27:00,76.9,67.2,29.84,North,32767,0.0,0.0,72,0.00,,,0.01,104,Wunderground v.1.15,2013-05-29 22:27:00,
2013-05-29 18:32:00,76.9,66.8,29.83,North,32767,0.0,0.0,71,0.00,,,0.01,97,Wunderground v.1.15,2013-05-29 22:32:00,
2013-05-29 18:38:00,76.9,67.2,29.83,North,32767,0.0,0.0,72,0.00,,,0.01,81,Wunderground v.1.15,2013-05-29 22:38:00,
2013-05-29 18:44:00,76.9,67.2,29.83,North,32767,0.0,0.0,72,0.00,,,0.01,149,Wunderground v.1.15,2013-05-29 22:44:00,
2013-05-29 18:50:00,77.0,67.3,29.83,North,32767,0.0,0.0,72,0.00,,,0.01,109,Wunderground v.1.15,2013-05-29 22:50:00,
2013-05-29 18:56:00,77.0,67.3,29.83,North,32767,0.0,0.0,72,0.00,,,0.01,216,Wunderground v.1.15,2013-05-29 22:56:00,
2013-05-29 19:02:00,77.2,67.5,29.83,North,32767,0.0,0.0,72,0.00,,,0.01,72,Wunderground v.1.15,2013-05-29 23:02:00,
2013-05-29 19:08:00,77.3,67.2,29.83,North,32767,0.0,0.0,71,0.00,,,0.01,56,Wunderground v.1.15,2013-05-29 23:08:00,
2013-05-29 19:14:00,77.3,67.2,29.82,North,32767,0.0,0.0,71,0.00,,,0.01,47,Wunderground v.1.15,2013-05-29 23:14:00,
2013-05-29 19:20:00,77.2,66.7,29.82,North,32767,0.0,0.0,70,0.00,,,0.01,28,Wunderground v.1.15,2013-05-29 23:20:00,
2013-05-29 19:26:00,77.1,67.0,29.82,North,32767,0.0,0.0,71,0.00,,,0.01,21,Wunderground v.1.15,2013-05-29 23:26:00,
2013-05-29 19:32:00,76.9,67.2,29.82,North,32767,0.0,0.0,72,0.00,,,0.01,28,Wunderground v.1.15,2013-05-29 23:32:00,
2013-05-29 19:38:00,76.7,67.0,29.82,North,32767,0.0,0.0,72,0.00,,,0.01,33,Wunderground v.1.15,2013-05-29 23:38:00,
2013-05-29 19:44:00,76.5,67.2,29.82,North,32767,0.0,0.0,73,0.00,,,0.01,30,Wunderground v.1.15,2013-05-29 23:44:00,
2013-05-29 19:50:00,76.3,67.0,29.82,North,32767,0.0,0.0,73,0.00,,,0.01,37,Wunderground v.1.15,2013-05-29 23:50:00,
2013-05-29 19:56:00,76.1,67.6,29.82,North,32767,0.0,0.0,75,0.00,,,0.01,44,Wunderground v.1.15,2013-05-29 23:56:00,
2013-05-29 20:01:00,75.9,67.0,29.82,North,32767,0.0,0.0,74,0.00,,,0.01,40,Wunderground v.1.15,2013-05-30 00:01:00,
2013-05-29 20:07:00,75.8,67.3,29.82,North,32767,0.0,0.0,75,0.00,,,0.01,47,Wunderground v.1.15,2013-05-30 00:07:00,
2013-05-29 20:13:00,75.7,67.2,29.82,North,32767,0.0,0.0,75,0.00,,,0.01,51,Wunderground v.1.15,2013-05-30 00:13:00,
2013-05-29 20:18:00,75.6,67.5,29.82,North,32767,0.0,0.0,76,0.00,,,0.01,37,Wunderground v.1.15,2013-05-30 00:18:00,
2013-05-29 20:24:00,75.5,68.2,29.82,North,32767,0.0,0.0,78,0.00,,,0.01,23,Wunderground v.1.15,2013-05-30 00:24:00,
2013-05-29 20:30:00,75.3,67.6,29.82,North,32767,0.0,0.0,77,0.00,,,0.01,23,Wunderground v.1.15,2013-05-30 00:30:00,
2013-05-29 20:35:00,75.2,67.5,29.82,North,32767,0.0,0.0,77,0.00,,,0.01,18,Wunderground v.1.15,2013-05-30 00:35:00,
2013-05-29 20:41:00,75.0,67.3,29.82,North,32767,0.0,0.0,77,0.00,,,0.01,14,Wunderground v.1.15,2013-05-30 00:41:00,
2013-05-29 20:47:00,74.8,67.1,29.82,North,32767,0.0,0.0,77,0.00,,,0.01,12,Wunderground v.1.15,2013-05-30 00:47:00,
2013-05-29 20:53:00,74.6,67.3,29.82,North,32767,0.0,0.0,78,0.00,,,0.01,7,Wunderground v.1.15,2013-05-30 00:53:00,
2013-05-29 20:58:00,74.3,67.0,29.82,North,32767,0.0,0.0,78,0.00,,,0.01,0,Wunderground v.1.15,2013-05-30 00:58:00,
2013-05-29 21:03:00,74.1,66.8,29.82,North,32767,0.0,0.0,78,0.00,,,0.01,0,Wunderground v.1.15,2013-05-30 01:03:00,
2013-05-29 21:09:00,73.8,66.9,29.82,North,32767,0.0,0.0,79,0.00,,,0.01,0,Wunderground v.1.15,2013-05-30 01:09:00,
2013-05-29 21:15:00,73.5,66.6,29.82,North,32767,0.0,0.0,79,0.00,,,0.01,0,Wunderground v.1.15,2013-05-30 01:15:00,
2013-05-29 21:21:00,73.1,66.6,29.82,North,32767,0.0,0.0,80,0.00,,,0.01,0,Wunderground v.1.15,2013-05-30 01:21:00,
2013-05-29 21:27:00,72.8,66.6,29.82,North,32767,0.0,0.0,81,0.00,,,0.01,0,Wunderground v.1.15,2013-05-30 01:27:00,
2013-05-29 21:32:00,72.4,66.6,29.82,North,32767,0.0,0.0,82,0.00,,,0.01,0,Wunderground v.1.15,2013-05-30 01:32:00,
2013-05-29 21:38:00,72.0,66.2,29.83,North,32767,0.0,0.0,82,0.00,,,0.01,0,Wunderground v.1.15,2013-05-30 01:38:00,
2013-05-29 21:44:00,71.6,66.2,29.83,North,32767,0.0,0.0,83,0.00,,,0.01,0,Wunderground v.1.15,2013-05-30 01:44:00,
2013-05-29 21:50:00,71.3,66.2,29.83,North,32767,0.0,0.0,84,0.00,,,0.01,0,Wunderground v.1.15,2013-05-30 01:50:00,
2013-05-29 21:56:00,70.9,66.2,29.83,North,32767,0.0,0.0,85,0.00,,,0.01,0,Wunderground v.1.15,2013-05-30 01:56:00,
2013-05-29 22:02:00,70.6,66.2,29.83,North,32767,0.0,0.0,86,0.00,,,0.01,0,Wunderground v.1.15,2013-05-30 02:02:00,
2013-05-29 22:08:00,70.3,65.9,29.83,North,32767,0.0,0.0,86,0.00,,,0.01,0,Wunderground v.1.15,2013-05-30 02:08:00,
2013-05-29 22:14:00,70.0,66.0,29.83,North,32767,0.0,0.0,87,0.00,,,0.01,0,Wunderground v.1.15,2013-05-30 02:14:00,
2013-05-29 22:20:00,69.7,65.7,29.83,North,32767,0.0,0.0,87,0.00,,,0.01,0,Wunderground v.1.15,2013-05-30 02:20:00,
2013-05-29 22:26:00,69.4,65.7,29.84,North,32767,0.0,0.0,88,0.00,,,0.01,0,Wunderground v.1.15,2013-05-30 02:26:00,
2013-05-29 22:31:00,69.2,65.5,29.84,North,32767,0.0,0.0,88,0.00,,,0.01,0,Wunderground v.1.15,2013-05-30 02:31:00,
2013-05-29 22:37:00,68.9,65.5,29.84,North,32767,0.0,0.0,89,0.00,,,0.01,0,Wunderground v.1.15,2013-05-30 02:37:00,
2013-05-29 22:42:00,68.7,65.3,29.84,North,32767,0.0,0.0,89,0.00,,,0.01,0,Wunderground v.1.15,2013-05-30 02:42:00,
2013-05-29 22:48:00,68.5,65.1,29.84,North,32767,0.0,0.0,89,0.00,,,0.01,0,Wunderground v.1.15,2013-05-30 02:48:00,
2013-05-29 22:53:00,68.2,65.2,29.84,North,32767,0.0,0.0,90,0.00,,,0.01,0,Wunderground v.1.15,2013-05-30 02:53:00,
2013-05-29 22:59:00,68.0,65.0,29.85,North,32767,0.0,0.0,90,0.00,,,0.01,0,Wunderground v.1.15,2013-05-30 02:59:00,
2013-05-29 23:05:00,67.8,64.8,29.85,North,32767,0.0,0.0,90,0.00,,,0.01,0,Wunderground v.1.15,2013-05-30 03:05:00,
2013-05-29 23:11:00,67.6,65.2,29.85,North,32767,0.0,0.0,92,0.00,,,0.01,0,Wunderground v.1.15,2013-05-30 03:11:00,
2013-05-29 23:16:00,67.5,64.8,29.85,North,32767,0.0,0.0,91,0.00,,,0.01,0,Wunderground v.1.15,2013-05-30 03:16:00,
2013-05-29 23:22:00,67.3,64.6,29.84,North,32767,0.0,0.0,91,0.00,,,0.01,0,Wunderground v.1.15,2013-05-30 03:22:00,
2013-05-29 23:27:00,67.2,64.8,29.85,North,32767,0.0,0.0,92,0.00,,,0.01,0,Wunderground v.1.15,2013-05-30 03:27:00,
2013-05-29 23:33:00,67.0,64.6,29.85,North,32767,0.0,0.0,92,0.00,,,0.01,0,Wunderground v.1.15,2013-05-30 03:33:00,
2013-05-29 23:39:00,66.8,64.4,29.85,North,32767,0.0,0.0,92,0.00,,,0.01,0,Wunderground v.1.15,2013-05-30 03:39:00,
2013-05-29 23:44:00,66.6,64.2,29.85,North,32767,0.0,0.0,92,0.00,,,0.01,0,Wunderground v.1.15,2013-05-30 03:44:00,
2013-05-29 23:50:00,66.5,64.4,29.85,North,32767,0.0,0.0,93,0.00,,,0.01,0,Wunderground v.1.15,2013-05-30 03:50:00,
2013-05-29 23:56:00,66.3,64.2,29.85,North,32767,0.0,0.0,93,0.00,,,0.01,0,Wunderground v.1.15,2013-05-30 03:56:00,